Torna al catalogo

STARLINK-5307

AttivoComunicazioniVLEO
NORAD 55658·PAYLOAD·🇺🇸 United States

Lanciato Feb 17, 2023 da Vandenberg Space Force Base

Loading…

Prossimi Passaggi (prossime 24 ore)

TLE

AggiornatoSource: CelesTrak SupGP

Epoca: Sep 14, 2026, 21:34 UTC

1 55658C 23021AG  26257.89909722  .00036828  00000+0  30862-2 0  2579
2 55658  70.0012  67.2750 0002646 274.2351 170.9807 14.98313916    18

Traccia STARLINK-5307 in tempo reale con AllMySat

Download on the App Store